Starlink 32502

operational
NORAD ID: 62116 Int'l Des: 2024-222 Owner: SPXS Country: US Constellation: starlink
LEOCIRCULAR

About Starlink 32502

Description loading...

Live Position

Loading 3D Globe...

Upcoming Passes

Altitude History

Altitude vs Time

uPlot chart will show altitude changes over time

Two-Line Element Set

1 62116U 24222C 25351.40701056 .00039550 00000-0 14397-2 0 9995
2 62116 42.9995 240.9834 0000720 299.3304 60.7476 15.27564272 60226
Epoch: Dec 17, 2025 • Age: 13 hours

Current Status

Altitude 485.9 km
Velocity 7.63 km/s
Sub-Earth Point 39.95°N, 74.22°W
Launch Date Nov 27, 2024
Age 1 years
Type internet

Technical Details

Classification Payload
Mass 730.00 kg
Dry Mass 700.00 kg
Total Mass 730.00 kg
Length 0.30 m
Diameter 4.10 m
Span 29.00 m
Shape Box + pan
Manufacturer SPXS
Bus Type Starlink V2M
Phase Status In Orbit
Owner/State SPXS/US

Large Constellations

Loading constellations...